TimeCST,TemperatureF,Dew PointF,Humidity,Sea Level PressureIn,VisibilityMPH,Wind Direction,Wind SpeedMPH,Gust SpeedMPH,PrecipitationIn,Events,Conditions,WindDirDegrees,DateUTC
12:15 AM,59.5,59.0,98,30.02,7.0,NE,11.5,-,N/A,,Overcast,40,2013-02-12 06:15:00
12:35 AM,59.9,59.0,97,30.02,7.0,ENE,8.1,-,N/A,,Overcast,60,2013-02-12 06:35:00
12:55 AM,59.9,59.2,97,30.00,7.0,ENE,10.4,-,N/A,,Overcast,70,2013-02-12 06:55:00
1:15 AM,59.9,59.4,98,29.99,7.0,ENE,8.1,-,N/A,,Overcast,70,2013-02-12 07:15:00
1:35 AM,60.1,59.5,98,29.99,7.0,NE,8.1,-,N/A,,Overcast,40,2013-02-12 07:35:00
1:55 AM,60.1,59.5,98,29.99,7.0,NNE,10.4,-,N/A,,Overcast,30,2013-02-12 07:55:00
2:15 AM,59.9,59.4,98,29.99,7.0,NNE,8.1,-,N/A,,Overcast,30,2013-02-12 08:15:00
2:35 AM,60.1,59.5,98,29.99,7.0,NE,9.2,-,N/A,,Overcast,40,2013-02-12 08:35:00
2:55 AM,59.9,59.4,98,29.98,5.0,NNE,11.5,-,N/A,,Overcast,30,2013-02-12 08:55:00
3:15 AM,59.9,59.2,97,29.97,7.0,NNE,15.0,-,N/A,,Overcast,30,2013-02-12 09:15:00
3:35 AM,59.2,59.0,99,29.97,7.0,NE,11.5,-,N/A,,Overcast,50,2013-02-12 09:35:00
3:55 AM,59.2,59.0,99,29.96,7.0,NE,11.5,-,N/A,,Overcast,40,2013-02-12 09:55:00
4:15 AM,59.2,59.0,99,29.96,5.0,NE,11.5,-,N/A,,Overcast,50,2013-02-12 10:15:00
4:35 AM,59.4,59.0,99,29.96,5.0,NE,10.4,-,N/A,,Overcast,50,2013-02-12 10:35:00
5:49 AM,60.8,60.8,100,29.95,6.0,NE,12.7,-,N/A,,Overcast,50,2013-02-12 11:49:00
6:50 AM,60.8,60.8,100,29.94,3.0,NE,4.6,-,N/A,,Overcast,40,2013-02-12 12:50:00
7:50 AM,60.8,60.8,100,29.93,1.2,NE,4.6,-,N/A,,Overcast,40,2013-02-12 13:50:00
8:51 AM,62.6,62.6,100,29.93,1.0,ENE,5.8,-,N/A,,Overcast,60,2013-02-12 14:51:00
9:51 AM,66.2,66.2,100,29.90,3.0,East,9.2,-,N/A,,Overcast,100,2013-02-12 15:51:00
10:49 AM,71.6,69.8,94,29.89,3.0,SE,9.2,-,N/A,,Overcast,130,2013-02-12 16:49:00
11:50 AM,71.6,71.6,100,29.89,5.0,South,13.8,-,N/A,,Overcast,170,2013-02-12 17:50:00
12:50 PM,71.6,71.6,100,29.83,5.0,South,17.3,-,N/A,,Overcast,170,2013-02-12 18:50:00
1:48 PM,75.2,71.6,89,29.80,5.0,South,17.3,-,N/A,,Mostly Cloudy,190,2013-02-12 19:48:00
2:50 PM,73.4,71.6,94,29.78,5.0,SSW,17.3,-,N/A,,Overcast,200,2013-02-12 20:50:00
3:50 PM,73.4,71.6,94,29.77,5.0,SSW,17.3,23.0,N/A,,Overcast,200,2013-02-12 21:50:00
4:50 PM,73.4,69.8,88,29.78,5.0,SSW,17.3,23.0,N/A,,Overcast,200,2013-02-12 22:50:00
6:15 PM,72.5,70.2,92,29.78,7.0,SSW,8.1,-,N/A,,Overcast,210,2013-02-13 00:15:00
6:35 PM,72.1,70.0,93,29.79,7.0,SSW,9.2,-,N/A,,Overcast,200,2013-02-13 00:35:00
6:50 PM,71.6,69.8,94,29.80,5.0,SSW,11.5,-,N/A,,Overcast,200,2013-02-13 00:50:00
6:55 PM,71.6,70.0,95,29.80,5.0,SW,10.4,17.3,N/A,,Overcast,220,2013-02-13 00:55:00
7:15 PM,71.6,70.0,95,29.80,7.0,SW,11.5,18.4,N/A,,Overcast,220,2013-02-13 01:15:00
7:35 PM,71.6,69.8,94,29.80,5.0,SW,11.5,17.3,N/A,,Overcast,230,2013-02-13 01:35:00
7:55 PM,71.6,69.4,93,29.81,5.0,SW,11.5,19.6,N/A,,Overcast,220,2013-02-13 01:55:00
8:35 PM,71.2,69.1,93,29.81,7.0,WSW,8.1,-,N/A,,Overcast,240,2013-02-13 02:35:00
8:55 PM,70.3,68.2,93,29.81,7.0,WSW,9.2,18.4,N/A,,Overcast,250,2013-02-13 02:55:00
9:15 PM,69.1,67.5,95,29.81,7.0,West,9.2,-,N/A,,Scattered Clouds,260,2013-02-13 03:15:00
9:35 PM,68.4,67.1,96,29.83,7.0,West,8.1,-,N/A,,Scattered Clouds,260,2013-02-13 03:35:00
9:55 PM,68.0,67.1,97,29.83,7.0,West,9.2,-,N/A,,Scattered Clouds,260,2013-02-13 03:55:00
10:15 PM,68.0,66.6,95,29.84,5.0,West,9.2,-,N/A,,Mostly Cloudy,270,2013-02-13 04:15:00
10:35 PM,67.5,66.2,96,29.84,5.0,West,6.9,-,N/A,,Scattered Clouds,280,2013-02-13 04:35:00
10:55 PM,67.1,65.7,95,29.84,5.0,WSW,5.8,-,N/A,,Scattered Clouds,250,2013-02-13 04:55:00
11:15 PM,66.7,64.2,92,29.84,7.0,West,8.1,-,N/A,,Scattered Clouds,260,2013-02-13 05:15:00
11:35 PM,66.2,63.5,91,29.85,7.0,West,9.2,-,N/A,,Scattered Clouds,280,2013-02-13 05:35:00
11:55 PM,65.3,62.1,89,29.85,7.0,WNW,12.7,16.1,N/A,,Scattered Clouds,300,2013-02-13 05:55:00